|
NORAD ID: 6267 Int'l Code: 1972-087E
Perigee: 1,306.9 km
Apogee: 1,474.1 km
Inclination: 74.0 °
Period: 113.4 minutes
Semi major axis: 7761 km
Launch date: November 1, 1972
Source: Commonwealth of Independent States (former USSR) (CIS)
Two Line Element Set (TLE):
1 06267U 72087E 13141.48190573 .00000025 00000-0 20751-3 0 7580
2 06267 074.0336 196.8717 0107755 036.5355 091.5786 12.69651553879640
Source:
NASA's NSSDC Master Catalog entry for COSMOS 532
|